Location: Arrodets-la-Barthe
(43.0306°N, 0.2829°E)
Time: 10:51:32
(UTC+00:00)

Cosmos 2278 - Pass Details

Date: 04 June 2022
Orbit: 838 x 854 km, 71.1° (Epoch: 01 July)

Event Time Altitude Azimuth Distance (km) Brightness Sun altitude
Rises 21:10:54 0° 254° (WSW) 3,395 7.2 -14.1°
Reaches altitude 10° 21:14:17 10° 275° (W) 2,467 6.7 -14.5°
Maximum altitude 21:17:50 17° 314° (NW) 2,034 6.8 -14.9°
Drops below altitude 10° 21:21:26 10° 353° (N) 2,482 7.1 -15.3°
Sets 21:24:52 0° 14° (NNE) 3,424 7.5 -15.7°
